Theta_e
302 303 304 305 306 306 305 305 304 303 303 303 303 303 304 301 299 293 288 290 290 285 285 288 287 284 285 286 283 283 285 284 284 280 279 279 278 280 279 281 279 280 280 280 281 278 275 292 291 286 283 285 288 286
301 301 302 302 303 304 305 304 304 303 303 303 302 302 302 301 300 296 289 289 292 286 285 289 288 288 285 287 285 284 283 284 287 283 283 282 280 281 280 277 285 279 283 282 285 284 292 288 283 279 279 279 280 280
298 300 300 300 301 302 302 303 302 301 301 301 301 301 300 299 298 293 287 286 289 285 286 287 284 289 291 288 289 284 283 287 288 289 286 284 279 282 279 279 282 285 280 283 285 288 288 280 281 278 275 276 277 278
296 297 297 298 298 300 300 300 300 300 300 299 299 298 298 297 295 292 285 286 287 284 281 281 290 287 291 290 289 289 287 287 288 287 283 281 280 284 281 282 282 275 275 274 277 283 275 281 276 273 274 275 275 275
294 294 294 295 295 296 298 298 299 299 299 299 299 298 296 294 292 288 286 286 286 287 279 281 285 287 289 290 288 288 287 285 284 281 280 278 281 281 283 282 279 267 265 270 276 268 267 269 272 271 272 272 273 273
293 293 293 293 293 294 295 296 297 298 298 297 297 296 295 293 290 288 285 286 287 286 283 279 281 282 284 287 286 284 284 284 284 281 281 282 276 278 278 271 264 265 266 266 264 266 266 267 270 272 268 270 270 271
292 292 293 292 292 292 293 293 294 296 296 296 295 294 293 291 285 280 279 282 288 285 283 278 277 278 277 280 283 283 284 284 284 282 282 277 272 273 269 269 264 264 264 263 264 264 265 268 265 267 268 268 269 269
291 291 292 292 291 291 291 292 292 293 295 294 293 292 291 289 286 280 282 281 283 278 278 273 273 276 275 276 277 278 280 283 282 282 276 271 270 269 265 263 262 262 262 263 262 262 262 264 265 264 265 265 265 266
290 290 290 291 290 290 290 290 290 291 291 293 290 287 282 276 276 277 285 281 275 278 271 268 272 272 272 272 274 276 278 277 282 276 272 272 267 266 262 261 260 260 258 258 259 260 261 260 260 261 262 262 262 263
290 289 289 290 289 289 288 288 289 289 289 287 282 278 273 274 282 280 274 274 269 264 264 261 258 268 269 269 270 272 271 274 273 272 272 267 264 263 261 261 261 260 259 259 256 257 257 257 258 259 259 261 261 261
289 289 288 289 289 288 287 287 288 285 282 274 272 272 274 277 275 268 266 267 262 265 259 256 259 263 267 267 266 271 269 268 269 270 270 265 264 264 262 261 261 260 260 259 259 259 259 258 258 258 259 260 260 261
289 288 287 288 288 287 286 286 286 275 270 272 271 270 269 266 267 267 256 259 261 261 257 260 260 261 262 266 266 267 268 267 267 267 269 264 264 261 260 260 259 259 258 258 258 258 258 258 258 259 259 259 259 261
288 287 287 287 287 286 285 284 283 281 275 270 267 264 268 262 263 261 258 260 261 256 255 255 260 258 261 265 263 264 266 267 264 265 265 264 262 261 260 259 259 259 258 258 257 258 258 258 258 258 259 259 259 260
287 285 286 287 286 284 283 282 279 272 267 263 263 261 259 259 257 256 258 257 257 257 255 256 254 257 258 262 263 265 264 263 262 262 263 262 260 259 260 259 258 257 257 257 257 256 256 256 256 258 259 259 258 258
286 283 284 285 285 283 280 278 274 261 262 259 261 257 255 253 251 249 247 250 254 254 255 255 255 259 259 260 260 261 262 261 261 264 264 261 259 259 258 258 257 257 256 256 256 256 256 256 256 257 258 258 258 258
284 279 278 285 284 280 278 268 261 259 254 257 255 255 248 254 254 250 249 252 253 255 254 254 255 259 258 258 260 260 261 261 264 262 261 258 256 256 256 255 256 255 255 255 256 255 255 255 255 255 257 257 256 257
279 268 282 284 281 275 275 261 260 253 255 256 253 243 250 252 257 254 251 253 254 253 258 254 258 259 257 258 259 257 261 263 261 260 258 257 257 256 255 254 254 253 254 254 254 254 254 255 255 256 254 255 255 256
265 271 282 281 272 267 256 256 256 257 253 250 256 252 247 248 251 249 248 249 252 252 251 256 257 256 258 258 261 261 259 258 257 258 258 257 256 254 253 254 253 252 252 251 251 251 252 253 254 254 253 254 254 255
272 274 280 279 271 260 260 257 256 255 249 245 247 248 248 247 246 246 246 246 247 249 252 252 255 258 261 259 261 259 256 256 259 257 255 252 252 251 250 249 249 249 248 249 250 251 252 250 252 252 252 252 252 253
277 277 277 274 270 262 258 255 253 256 253 251 246 248 249 250 246 243 243 245 249 249 251 252 258 260 261 260 258 258 256 254 255 256 256 254 252 248 251 250 252 249 248 249 250 250 251 253 252 251 250 250 250 251
270 270 271 263 258 254 253 250 252 249 248 252 244 248 251 247 247 247 247 243 249 251 256 255 256 254 246 246 247 249 252 253 255 257 257 255 251 250 250 249 246 247 249 249 250 252 250 251 251 250 249 250 250 250
262 272 261 264 260 254 252 249 252 250 251 247 249 245 248 250 247 245 242 248 251 256 254 254 252 250 248 249 249 245 245 244 242 248 246 248 254 254 253 250 249 251 249 250 249 251 251 250 250 250 249 250 250 250
268 266 261 260 260 257 251 248 251 247 254 251 246 251 249 246 244 244 250 253 254 250 247 248 244 239 244 240 238 239 239 244 249 248 248 248 248 247 247 248 246 248 251 252 248 249 249 248 249 249 249 249 248 249
264 256 256 255 256 253 248 249 248 248 247 248 250 252 250 244 244 247 253 253 255 248 247 247 244 249 246 242 246 249 246 242 246 246 244 247 250 252 248 250 247 247 248 249 248 248 249 249 248 248 248 247 248 248
262 258 255 254 250 253 251 250 250 252 252 243 248 250 248 241 248 248 251 255 254 253 251 247 247 249 253 253 251 250 243 246 249 251 250 247 248 248 250 249 249 248 247 249 251 249 248 247 248 248 248 248 247 248
258 250 254 251 251 257 252 256 251 250 245 248 247 244 240 246 249 252 251 251 252 252 251 253 254 254 253 252 256 255 253 245 248 252 252 247 249 252 252 252 252 252 246 247 248 248 247 247 246 246 248 248 248 247
256 253 246 243 247 249 247 245 245 247 248 251 249 247 247 250 249 253 250 251 254 253 252 252 253 255 257 256 254 252 247 247 251 252 248 248 249 249 252 251 250 250 246 246 245 245 245 245 246 247 247 248 248 248
250 246 257 249 248 245 250 247 247 248 249 246 248 251 252 254 254 252 253 252 250 250 250 252 251 252 254 254 253 253 250 249 249 249 249 248 245 246 246 247 247 252 249 247 247 247 246 246 246 247 247 248 248 249
250 246 249 250 247 249 251 254 253 250 246 247 251 251 253 251 247 247 249 247 246 247 247 247 251 249 251 253 252 251 251 252 254 253 252 253 253 252 247 244 245 245 245 244 249 254 252 251 250 248 246 247 247 246
249 246 252 250 253 255 251 247 247 243 244 243 242 245 247 248 247 242 241 241 244 245 245 244 244 246 252 254 254 252 250 250 252 254 254 253 252 246 242 243 244 244 244 241 246 246 249 247 247 244 244 244 244 244
247 248 251 251 252 248 245 242 241 241 240 239 237 240 242 240 242 241 240 239 239 238 241 244 247 251 253 254 255 255 255 250 249 250 249 246 243 241 242 244 245 242 240 241 242 241 244 244 242 241 242 242 242 243
250 251 252 254 252 245 244 243 240 241 239 240 239 234 237 238 241 247 244 241 244 252 256 256 256 254 254 254 254 253 253 252 251 251 247 246 243 244 244 243 240 239 240 243 242 242 241 240 242 242 242 242 242 242
248 249 249 250 251 250 246 244 243 243 240 239 239 236 235 239 245 248 246 244 249 253 254 255 254 254 254 254 253 252 252 251 250 253 254 253 252 251 243 240 239 239 240 242 243 242 241 240 241 241 242 241 241 242
Wind_Speed
39 39 38 35 32 30 31 30 29 27 25 25 25 22 18 17 14 12 4 8 5 6 5 5 3 6 4 3 7 6 5 1 3 4 4 4 5 7 4 5 6 9 7 7 7 9 20 3 9 17 9 18 16 20
36 36 36 34 33 31 29 28 28 25 24 23 21 18 17 16 18 9 7 2 7 10 6 5 9 6 4 2 8 3 1 4 5 4 3 2 2 3 3 5 6 7 10 5 9 7 13 10 11 8 12 12 17 19
35 34 33 33 32 32 30 27 27 26 25 25 24 23 23 25 25 13 5 3 5 6 4 4 6 6 7 8 2 6 1 2 3 4 3 2 5 1 5 7 8 6 7 8 9 18 16 15 5 12 20 17 19 18
33 33 33 32 31 30 29 27 26 25 25 26 27 26 25 26 27 18 7 5 5 5 6 3 3 5 4 8 10 5 9 7 5 2 2 1 3 4 4 5 7 4 7 4 10 9 20 8 13 21 25 21 23 23
33 34 33 32 31 29 27 26 24 23 22 22 20 19 19 21 23 16 8 7 5 3 6 3 1 6 5 6 10 10 9 6 2 2 2 4 3 2 4 4 4 5 5 4 8 12 8 18 19 27 20 23 22 23
31 31 31 31 31 30 28 24 22 18 17 18 16 15 14 10 7 4 5 5 9 4 7 4 1 4 6 4 5 5 3 2 2 2 3 2 4 3 4 2 4 6 6 7 8 19 20 25 24 16 22 23 22 22
30 30 29 29 29 28 27 25 20 16 16 18 21 23 24 20 10 7 3 5 14 3 5 4 3 5 6 3 2 2 3 2 2 3 4 3 3 3 0 2 7 8 10 14 12 14 10 7 13 22 20 21 20 18
28 29 29 28 27 27 26 24 21 15 8 10 14 16 18 18 13 6 8 13 4 7 5 5 2 1 8 2 1 3 1 1 3 1 3 3 2 1 2 0 7 8 12 6 12 12 14 17 18 18 16 17 19 16
24 25 26 27 26 27 25 23 22 17 11 4 6 8 5 9 5 1 11 6 6 7 5 4 3 2 7 3 2 1 0 3 1 2 2 2 1 2 1 6 7 7 7 13 16 13 10 12 14 16 17 18 17 18
25 21 23 24 25 25 25 24 22 14 6 7 5 5 4 3 9 7 8 6 9 8 7 5 1 1 4 3 1 1 1 1 3 2 3 3 1 3 2 5 4 6 8 9 11 10 14 15 14 16 16 14 14 15
25 23 20 23 23 23 23 23 23 13 6 5 4 3 2 8 2 6 5 6 5 5 6 2 2 2 5 2 2 3 1 1 3 3 2 2 2 2 3 4 4 5 7 8 8 9 8 9 12 14 16 16 14 15
23 19 18 23 22 22 21 22 20 6 2 3 5 3 3 8 5 8 3 3 6 2 4 2 3 3 3 3 1 2 1 1 2 2 2 2 2 2 3 3 4 3 5 7 7 9 9 8 9 11 12 13 14 14
22 14 17 23 21 20 17 18 13 7 3 3 6 7 5 5 9 5 1 2 2 2 4 4 0 3 3 1 1 1 1 2 1 1 1 2 2 2 2 3 4 3 5 7 8 10 10 10 10 9 11 11 12 11
20 9 17 23 21 20 15 17 13 6 6 7 5 8 6 5 3 2 1 1 1 0 1 1 2 2 2 1 0 0 1 1 2 1 2 2 1 1 1 3 4 6 6 7 9 10 10 10 9 8 8 10 11 13
18 7 13 21 20 19 12 12 13 7 6 6 5 4 3 0 0 1 1 2 1 1 1 0 1 1 1 1 3 1 2 1 3 1 1 2 2 1 1 3 4 5 6 6 7 8 9 10 10 10 9 9 10 9
16 4 9 24 18 15 12 7 7 5 7 6 7 5 2 1 1 1 1 1 1 1 1 1 1 2 2 1 1 2 3 4 1 1 1 2 2 1 1 1 2 3 4 5 5 6 7 8 8 9 9 9 10 11
8 3 19 21 15 7 18 6 5 10 6 6 3 0 1 2 2 1 1 1 1 1 0 1 2 3 2 1 2 4 3 1 1 1 2 3 3 3 2 2 3 4 5 5 6 5 6 6 6 6 10 11 9 8
1 5 17 17 7 6 6 7 6 6 7 1 3 2 1 0 3 1 2 1 1 1 2 1 1 2 3 3 2 3 3 1 1 1 1 2 2 2 2 2 3 4 5 5 5 5 4 5 6 6 7 9 8 8
5 4 16 15 6 6 6 6 5 5 1 1 0 1 0 1 0 2 1 0 0 0 1 1 1 3 3 3 3 2 2 2 2 2 0 1 2 3 3 2 4 3 4 4 3 3 4 4 3 4 5 5 5 6
6 5 12 13 6 5 7 4 2 5 2 2 1 1 1 1 1 1 1 2 0 1 1 3 5 3 4 2 3 2 2 3 3 2 1 2 2 3 3 2 2 3 3 2 3 1 2 2 1 3 3 3 4 6
5 6 8 6 5 9 6 2 5 2 3 2 0 0 1 1 1 1 1 2 1 4 4 5 3 1 0 0 1 1 2 3 3 2 3 3 3 2 2 1 1 1 1 2 2 2 1 2 3 4 4 4 4 5
3 7 3 5 6 5 7 2 3 1 2 1 2 1 1 1 1 1 1 1 5 4 4 3 2 3 2 3 4 4 2 3 2 1 1 0 2 2 2 1 2 1 2 2 2 2 2 2 3 3 4 6 5 5
5 4 4 5 7 7 2 1 4 4 3 2 1 2 1 1 2 1 3 4 4 0 0 1 1 1 1 2 2 3 4 4 4 4 3 4 3 3 3 3 3 2 2 1 1 2 3 4 4 5 5 5 4 6
8 7 6 4 3 2 2 4 2 3 3 4 3 2 2 2 3 2 4 3 2 0 2 2 1 1 0 2 2 3 3 4 2 3 3 2 2 2 3 2 1 3 4 2 2 2 2 4 4 4 4 4 4 4
6 5 4 3 3 5 4 3 4 3 1 1 1 3 2 2 2 2 4 4 1 1 1 2 2 2 2 2 2 2 4 4 4 3 2 4 1 1 1 1 2 2 2 1 2 2 3 3 3 4 5 4 7 8
2 4 2 3 1 3 4 2 2 3 2 1 5 2 2 3 2 6 4 3 2 2 1 3 3 2 3 5 2 1 2 5 3 2 1 5 4 2 1 1 1 1 2 1 2 4 6 5 5 7 7 8 8 9
3 3 0 1 2 4 4 3 2 3 1 4 3 1 2 1 5 5 3 2 1 1 2 2 3 4 2 1 1 2 2 5 2 1 2 1 2 2 1 2 3 2 2 2 2 3 4 6 6 7 7 8 7 7
3 3 4 3 3 1 5 2 4 5 4 2 3 2 5 8 5 4 3 2 2 2 3 4 4 4 4 3 1 1 2 2 2 3 2 1 1 2 3 3 3 7 3 2 3 3 4 5 6 7 7 7 8 7
3 1 1 3 1 1 4 5 4 2 1 3 4 4 5 3 2 2 2 2 1 2 3 3 3 1 2 2 2 2 2 3 3 2 2 2 0 1 2 2 3 3 2 3 6 6 7 7 5 4 5 5 6 6
0 1 3 2 3 3 1 1 1 0 0 0 1 3 3 4 4 1 2 2 2 3 4 3 2 0 2 2 3 2 1 3 3 2 3 3 3 2 2 2 3 3 2 1 4 5 6 4 4 4 4 4 4 6
1 1 1 1 2 0 1 2 1 2 2 2 2 2 3 6 7 3 3 3 2 2 3 2 1 3 3 3 3 3 3 2 3 4 3 2 2 2 3 3 3 2 1 3 3 3 3 2 2 4 6 7 8 7
1 2 1 1 1 0 1 1 1 1 1 1 1 2 4 4 4 5 3 3 2 1 3 3 2 2 1 1 1 2 4 3 3 3 5 3 3 4 3 3 1 2 1 2 2 2 2 3 4 5 5 7 8 8
2 0 0 2 2 2 1 1 3 3 1 2 3 3 3 3 6 5 3 4 3 2 1 1 0 0 0 0 1 2 2 2 2 3 3 5 5 3 2 1 1 1 2 3 3 3 4 4 5 6 7 7 9 9
Wind_Direction
41 41 43 45 50 54 61 71 83 86 76 57 47 39 61 82 90 93 60 16 100 83 66 32 98 128 114 150 138 152 116 298 120 171 176 186 209 209 208 219 186 192 193 210 229 222 258 69 204 221 332 320 359 353
38 40 42 43 42 45 52 54 53 57 63 70 75 69 56 55 59 67 93 350 42 75 96 64 74 65 36 106 123 126 13 134 155 154 187 130 227 220 208 248 212 239 214 231 218 219 263 57 89 51 2 336 333 332
31 36 39 39 39 41 40 47 51 51 54 52 52 54 56 59 57 73 96 14 68 97 80 52 18 13 41 32 348 120 270 149 123 25 130 131 232 196 236 242 250 247 4 252 282 255 283 334 135 16 357 335 326 324
29 30 33 37 38 39 43 47 48 48 54 59 59 58 62 67 66 70 70 343 67 96 99 55 326 41 46 49 48 47 110 86 89 56 70 190 233 193 245 272 252 335 339 353 271 285 330 200 22 358 333 333 327 324
30 28 30 31 33 36 37 41 48 53 50 45 47 55 66 70 72 76 75 39 36 87 118 98 48 19 39 54 71 72 89 87 85 116 149 219 243 289 236 266 248 16 358 276 285 348 310 294 319 327 332 328 326 322
29 30 28 27 27 27 29 31 36 37 33 34 38 40 37 43 43 54 53 30 14 27 103 105 331 30 33 52 70 75 79 119 126 154 190 205 49 286 262 315 67 3 320 292 283 314 299 289 296 314 323 323 321 316
23 24 26 25 24 24 22 22 23 35 53 56 58 59 58 59 64 58 79 311 333 338 86 103 70 28 1 13 60 89 150 213 186 196 206 92 51 25 262 231 354 333 316 305 292 332 294 324 319 318 321 322 319 307
18 18 18 19 19 17 15 14 12 8 24 58 69 71 71 78 101 42 5 8 356 87 55 107 76 106 9 29 106 21 180 226 206 168 81 97 95 84 225 207 334 337 325 309 343 323 291 293 311 320 327 331 332 324
14 14 13 13 10 9 9 7 3 1 347 19 40 58 50 35 46 316 332 11 39 59 98 58 112 158 356 22 293 173 69 208 4 117 105 161 138 204 28 316 338 346 332 304 314 311 325 320 323 328 335 339 335 328
7 11 10 8 7 4 1 359 357 354 4 1 45 43 26 340 307 351 9 23 21 3 26 82 320 70 327 334 88 329 19 210 200 77 121 71 103 103 55 324 338 345 330 324 319 325 331 333 331 330 338 332 324 321
358 1 7 6 6 0 359 358 352 347 36 38 47 84 252 321 49 34 49 45 332 54 15 19 4 2 5 20 339 351 206 257 184 153 203 133 218 122 26 327 359 354 334 308 288 285 298 306 321 334 337 334 330 326
357 0 8 2 5 0 1 1 360 46 78 142 123 89 38 32 41 74 18 330 31 41 358 354 8 338 304 326 296 10 315 303 205 345 148 188 122 92 354 335 340 350 331 312 306 310 322 344 345 338 332 329 331 329
360 13 11 5 7 3 6 10 20 55 54 41 48 50 16 323 48 68 10 359 55 357 5 351 294 344 317 297 360 306 233 216 254 53 161 85 94 74 2 329 325 354 346 336 338 340 340 351 4 347 330 330 330 337
360 17 13 3 8 4 13 17 22 36 59 64 53 35 41 0 58 155 135 127 58 270 350 327 291 357 335 307 273 126 82 266 78 248 208 147 163 305 7 358 328 344 351 343 342 337 340 345 345 343 342 337 339 350
356 2 10 1 7 6 14 30 44 44 61 71 53 73 63 177 282 330 307 282 244 298 353 162 225 282 357 359 12 76 24 269 226 194 153 187 154 115 348 346 342 337 340 334 333 334 332 342 346 339 345 345 347 342
355 24 355 354 1 9 16 36 35 73 55 65 57 98 42 120 219 237 184 225 239 319 112 140 92 53 5 342 50 207 139 233 157 186 127 148 157 160 242 287 289 307 310 312 323 326 328 343 341 326 328 355 349 354
29 24 336 350 3 31 26 67 54 46 88 55 33 85 113 75 103 142 160 191 15 134 118 136 80 219 106 37 259 203 213 199 157 164 191 189 160 165 194 269 306 325 326 331 327 331 330 329 321 353 0 349 341 345
108 286 337 351 21 48 32 35 77 68 60 108 112 217 209 126 126 161 212 224 205 118 157 166 106 141 198 194 245 230 222 204 210 188 179 167 159 166 202 264 311 319 313 317 316 310 314 346 356 359 341 339 330 349
274 318 351 358 53 85 64 23 40 95 174 200 278 31 119 107 300 45 72 69 329 357 136 73 98 215 227 212 219 193 202 206 153 148 195 227 212 208 226 261 284 288 305 314 328 328 321 302 293 335 333 335 340 342
345 15 14 23 30 78 63 15 41 91 134 178 83 74 79 76 76 69 66 19 85 111 92 197 220 217 197 204 190 156 144 151 152 130 149 184 193 192 236 259 288 327 313 323 302 281 339 348 305 337 333 327 331 335
5 335 15 58 47 61 77 8 52 94 136 125 234 7 124 39 55 67 131 333 115 217 238 209 229 236 73 20 5 358 146 178 187 181 155 161 176 228 266 229 231 279 291 320 326 337 347 354 319 325 325 320 311 299
287 354 50 18 77 51 77 11 97 119 80 139 98 19 55 12 310 321 268 229 233 238 203 195 210 169 186 223 199 202 188 156 80 121 83 120 213 202 196 168 290 294 297 276 243 284 306 303 314 315 320 322 321 320
353 13 46 33 77 46 297 56 76 359 104 269 35 45 326 329 233 214 259 229 264 238 309 252 253 290 270 343 318 255 205 180 204 210 215 229 261 268 266 251 204 239 291 263 212 286 289 312 316 321 325 323 326 324
28 47 50 50 51 165 19 28 50 60 50 33 38 310 290 254 320 66 253 258 253 133 208 197 178 132 248 339 274 252 207 175 230 278 216 189 240 257 207 241 222 228 235 285 279 288 302 304 306 317 320 321 313 305
77 350 51 14 0 76 55 17 352 50 258 290 7 296 288 3 22 303 237 272 293 262 191 155 204 236 240 264 253 236 184 171 177 222 213 186 174 285 283 270 260 247 164 208 324 301 293 284 310 322 323 320 320 322
108 332 74 195 316 112 178 148 203 208 145 270 240 273 31 79 47 250 237 257 291 318 251 212 194 198 237 211 253 204 191 173 170 224 226 185 199 202 188 323 335 305 188 244 317 323 329 330 322 320 320 322 317 323
135 237 346 266 101 119 89 65 76 104 158 219 229 123 75 336 252 253 277 239 240 224 213 224 250 246 247 334 227 179 149 181 191 103 92 145 222 233 213 221 245 244 168 245 250 239 278 302 305 306 306 310 307 305
126 150 164 189 81 351 127 117 149 197 218 189 84 236 190 200 235 238 214 208 210 272 270 252 222 220 239 265 294 145 151 177 231 253 251 206 242 247 238 256 269 284 293 271 267 268 255 265 278 284 285 287 298 304
74 12 124 79 88 151 219 184 203 214 176 136 160 249 258 262 241 253 270 225 224 295 294 305 284 179 238 205 200 207 190 185 172 167 181 211 222 190 186 248 288 285 273 289 296 294 274 256 255 257 276 291 298 299
29 287 102 133 160 221 220 116 196 195 18 54 294 306 278 266 256 276 308 331 339 282 247 232 256 208 226 190 161 139 194 215 217 178 163 188 202 185 203 257 269 279 313 310 293 305 315 355 332 341 336 323 321 318
145 160 74 97 226 82 87 103 70 49 43 35 350 148 260 312 307 254 212 216 243 323 345 353 179 199 194 169 189 151 129 170 200 215 215 200 206 229 241 241 240 231 208 233 256 262 284 292 293 306 313 310 304 301
49 55 28 345 327 93 150 73 137 119 345 24 285 13 328 356 288 284 230 126 22 335 24 19 70 104 167 133 73 71 74 133 172 184 185 198 226 236 236 239 170 141 222 273 266 263 257 267 292 295 297 298 297 296
101 147 76 333 325 314 2 33 27 345 26 346 274 195 212 191 240 275 292 206 204 225 279 358 10 299 360 310 179 166 171 160 182 215 201 215 228 251 177 179 167 192 235 259 266 254 259 275 278 290 295 293 294 296